Weather Roundup
Issued by NWS Springfield, MO

Home | Current Version | Previous Version | Text Only | Print | Product List | Glossary On
Versions: 1 2 3 4 5 6 7 8 9 10 11 12 13 14 15 16 17 18 19 20 21 22 23 24 25 26 27 28 29 30 31 32 33 34 35 36 37 38 39 40 41 42 43 44 45 46 47 48 49 50
000
NZUS99 KSGF 241857
HRRSGF

HOURLY WEATHER
NATIONAL WEATHER SERVICE SPRINGFIELD MO
200 PM CDT TUE APR 24 2018

......SGF CWA......

CITY           SKY/WX    TMP DP  RH WIND       PRES   REMARKS
SPRINGFIELD    SUNNY     72  42  34 N14G20    30.05F
JOPLIN         SUNNY     73  41  31 N12G18    30.08F
ROLLA          PTSUNNY   67  51  56 NW6       30.05F
BRANSON        SUNNY     73  39  29 NW14G21   30.05F

......SURROUNDING SGF CWA......

CITY           SKY/WX    TMP DP  RH WIND       PRES   REMARKS
CHANUTE        SUNNY     77  33  20 N7G18     30.09F
PARSONS        SUNNY     77  35  21 N9        30.09F
COFFEYVILLE    SUNNY     77  37  23 VRB5      30.08F
EMPORIA        SUNNY     76  34  21 N8        30.09F
HARRISON AR    SUNNY     74  37  26 N8        30.04F

......KANSAS AND MISSOURI......

CITY           SKY/WX    TMP DP  RH WIND       PRES   REMARKS
KANSAS CTY INT PTSUNNY   75  33  21 NE10G21   30.09F
SEDALIA        SUNNY     74  45  35 NE12G17   30.06F
ST JOSEPH      MOSUNNY   77  35  21 N10G22    30.09F
ST LOUIS       PTSUNNY   64  53  67 N9        30.02F
WICHITA        PTSUNNY   77  38  24 VRB7G17   30.12S
TOPEKA         PTSUNNY   77  35  21 N8        30.09F
OLATHE         SUNNY     74  33  22 NE9       30.09F

......TENNESSEE......

CITY           SKY/WX    TMP DP  RH WIND       PRES   REMARKS
MEMPHIS        NOT AVBL
NASHVILLE      CLOUDY    64  55  72 VRB7      29.91F

......ARKANSAS.......

CITY           SKY/WX    TMP DP  RH WIND       PRES   REMARKS
FAYETTEVILLE   SUNNY     75  38  26 NW9G16    30.06F
FT SMITH       SUNNY     78  41  26 NW8       30.03F
LITTLE ROCK    NOT AVBL

......OKLAHOMA.......

CITY           SKY/WX    TMP DP  RH WIND       PRES   REMARKS
TULSA          PTSUNNY   77  38  24 VRB6      30.06F
PONCA CITY     MOSUNNY   77  40  26 N9        30.09F
MCALESTER      SUNNY     77  41  27 NE5G18    30.07F
OKLAHOMA CITY  MOSUNNY   74  45  35 VRB3      30.09F

......IOWA............

CITY           SKY/WX    TMP DP  RH WIND       PRES   REMARKS
DES MOINES     NOT AVBL
QUAD CITIES    FAIR      74  27  17 NW8       30.01F

......ILLINOIS........

CITY           SKY/WX    TMP DP  RH WIND       PRES   REMARKS
QUINCY         NOT AVBL
CHICAGO        FAIR      62  47  57 NE8       30.01F





USA.gov is the U.S. government's official web portal to all federal, state and local government web resources and services.